TimeEDT,TemperatureF,Dew PointF,Humidity,Sea Level PressureIn,VisibilityMPH,Wind Direction,Wind SpeedMPH,Gust SpeedMPH,PrecipitationIn,Events,Conditions,WindDirDegrees,DateUTC
12:53 AM,66.9,63.0,87,29.88,10.0,South,20.7,27.6,0.05,Rain,Light Rain,170,2013-04-05 04:53:00
1:53 AM,68.0,62.1,81,29.86,10.0,South,21.9,29.9,0.00,,Clear,180,2013-04-05 05:53:00
2:53 AM,69.1,63.0,81,29.87,10.0,South,11.5,-,N/A,,Scattered Clouds,180,2013-04-05 06:53:00
3:53 AM,69.1,63.0,81,29.86,10.0,South,10.4,-,N/A,,Mostly Cloudy,190,2013-04-05 07:53:00
4:53 AM,69.1,64.0,84,29.84,10.0,SSW,8.1,-,N/A,,Overcast,200,2013-04-05 08:53:00
5:53 AM,68.0,63.0,84,29.83,10.0,SSW,11.5,-,N/A,,Scattered Clouds,200,2013-04-05 09:53:00
6:53 AM,68.0,64.0,87,29.84,10.0,SW,11.5,-,N/A,,Partly Cloudy,220,2013-04-05 10:53:00
7:53 AM,68.0,64.9,90,29.88,10.0,SW,9.2,-,N/A,,Partly Cloudy,230,2013-04-05 11:53:00
8:19 AM,69.8,64.4,83,29.89,10.0,SW,10.4,-,N/A,,Mostly Cloudy,220,2013-04-05 12:19:00
8:53 AM,69.1,66.0,90,29.89,10.0,SW,8.1,-,N/A,,Overcast,220,2013-04-05 12:53:00
9:53 AM,70.0,66.0,87,29.89,10.0,SW,9.2,-,N/A,,Overcast,220,2013-04-05 13:53:00
10:53 AM,68.0,64.9,90,29.91,10.0,WNW,13.8,-,0.00,,Overcast,290,2013-04-05 14:53:00
11:17 AM,71.6,62.6,73,29.91,10.0,NW,15.0,25.3,N/A,,Overcast,320,2013-04-05 15:17:00
11:26 AM,71.6,62.6,73,29.91,10.0,NNW,16.1,21.9,N/A,,Mostly Cloudy,340,2013-04-05 15:26:00
11:53 AM,72.0,60.1,66,29.91,10.0,NW,19.6,25.3,N/A,,Mostly Cloudy,320,2013-04-05 15:53:00
12:18 PM,71.6,59.0,64,29.91,10.0,NW,19.6,24.2,N/A,,Overcast,320,2013-04-05 16:18:00
12:50 PM,71.6,59.0,64,29.91,10.0,North,15.0,20.7,N/A,,Overcast,350,2013-04-05 16:50:00
12:53 PM,72.0,59.0,64,29.91,10.0,NNW,17.3,23.0,N/A,,Overcast,340,2013-04-05 16:53:00
1:53 PM,69.1,57.9,68,29.91,10.0,NNW,18.4,26.5,N/A,,Overcast,340,2013-04-05 17:53:00
2:53 PM,73.0,55.0,53,29.89,10.0,NW,13.8,24.2,N/A,,Scattered Clouds,310,2013-04-05 18:53:00
3:53 PM,71.1,55.0,57,29.88,10.0,NW,19.6,26.5,N/A,,Clear,320,2013-04-05 19:53:00
4:53 PM,70.0,55.0,59,29.86,10.0,NW,17.3,-,N/A,,Clear,320,2013-04-05 20:53:00
5:53 PM,69.1,55.9,63,29.87,10.0,NNW,16.1,-,N/A,,Partly Cloudy,340,2013-04-05 21:53:00
6:53 PM,66.0,55.9,70,29.88,10.0,NNW,12.7,-,N/A,,Mostly Cloudy,340,2013-04-05 22:53:00
7:34 PM,64.4,55.4,73,29.89,10.0,NW,13.8,24.2,N/A,,Mostly Cloudy,320,2013-04-05 23:34:00
7:53 PM,63.0,55.9,78,29.90,10.0,NNW,12.7,-,N/A,,Mostly Cloudy,330,2013-04-05 23:53:00
8:53 PM,63.0,55.0,75,29.93,10.0,NNW,16.1,24.2,N/A,,Overcast,330,2013-04-06 00:53:00
9:53 PM,63.0,55.0,75,29.96,10.0,NNW,12.7,-,N/A,,Overcast,330,2013-04-06 01:53:00
10:53 PM,63.0,55.9,78,29.97,10.0,NNW,8.1,-,N/A,,Overcast,330,2013-04-06 02:53:00
11:11 PM,62.6,55.4,77,29.98,10.0,NNW,8.1,-,N/A,,Scattered Clouds,330,2013-04-06 03:11:00
11:38 PM,62.6,55.4,77,29.98,10.0,NNW,8.1,-,N/A,,Mostly Cloudy,330,2013-04-06 03:38:00
11:53 PM,62.1,55.9,80,29.99,10.0,NNW,9.2,-,N/A,,Mostly Cloudy,330,2013-04-06 03:53:00